Location: Charlottesville
(38.0290°N, 78.4770°W)
Time: 20:09:10
(UTC-04:00)

Tiangong 2 - Pass Details

Date: 13 October 2017
Orbit: 388 x 392 km, 42.8° (Epoch: 16 October)

Event Time Altitude Azimuth Distance (km) Brightness Sun altitude
Exits shadow 05:53:32 35° 337° (NNW) 655 2.0 -18.0°
Maximum altitude 05:53:51 36° 352° (N) 640 2.1 -17.9°
Drops below altitude 10° 05:56:51 10° 62° (ENE) 1,422 4.9 -17.3°
Sets 05:59:02 0° 71° (ENE) 2,279 6.5 -16.9°
